Back to catalog

STARLINK-4435

AliveCommunicationsSSO
NORAD 53502·PAYLOAD·🇺🇸 United States

Launched Aug 12, 2022 from Vandenberg Space Force Base

Loading…

Next Passes (next 24 hours)

TLE

FreshSource: CelesTrak SupGP

Epoch: Sep 14, 2026, 14:29 UTC

1 53502C 22099AP  26257.60395833 -.00008833  00000+0 -24517-3 0  2578
2 53502  97.4978  26.0333 0000960  94.4026 317.1019 15.36964587    15

Track STARLINK-4435 in real time with AllMySat

Download on the App Store